Regional Weather Roundup
Issued by NWS

Home | Current Version | Previous Version | Graphics & Text | Print | Product List | Glossary On
Versions: 1 2 3 4 5 6 7 8 9 10 11 12 13 14 15 16 17 18 19 20 21 22 23 24 25 26 27 28 29 30 31 32 33 34 35 36 37 38 39 40 41 42 43 44 45 46 47 48 49 50
000
ASUS43 KLSX 190807
RWRMO

WEATHER SUMMARY FOR MISSOURI
NATIONAL WEATHER SERVICE SPRINGFIELD MO
300 AM CDT SAT APR 19 2014

NOTE: "FAIR" INDICATES FEW OR NO CLOUDS BELOW 12,000 FEET WITH NO
       SIGNIFICANT WEATHER AND/OR OBSTRUCTIONS TO VISIBILITY.
       CURRENT SKY AND/OR WEATHER CONDITIONS ARE NOT AVAILABLE FOR
       CHILLICOTHE AND FARMINGTON.

MOZ001>031-035>038-043-044-053-054-190900-
...NORTHERN AND WESTERN MISSOURI...

CITY           SKY/WX    TMP DP  RH WIND       PRES   REMARKS
KANSAS CTY INT PTCLDY    54  40  59 SE13      30.14F
KANSAS C DTWN  PTCLDY    61  39  44 SE15      30.14F
LEE`S SUMMIT   CLEAR     55  39  54 SE8       30.16F
ST JOSEPH      PTCLDY    55  40  56 SE9       30.14F
CHILLICOTHE      N/A     53  40  61 SE6       30.19F
KIRKSVILLE     CLEAR     47  33  58 SE8       30.22F

$$
MOZ066>068-077>081-088>096-101>105-190900-
...SOUTHWEST MISSOURI...

CITY           SKY/WX    TMP DP  RH WIND       PRES   REMARKS
SPRINGFIELD    CLEAR     52  41  66 SE9       30.18F
JOPLIN         CLEAR     54  41  61 S10       30.17S

$$
MOZ032>034-039>042-045>050-055>058-069>072-190900-
...CENTRAL MISSOURI...

CITY           SKY/WX    TMP DP  RH WIND       PRES   REMARKS
COLUMBIA       CLEAR     53  39  59 SE8       30.22S
JEFFERSON CITY CLEAR     45  40  82 SE3       30.22S
ROLLA          CLEAR     52  41  66 SE8       30.22S
SEDALIA        CLEAR     53  41  63 SE8       30.19F
WHITEMAN AFB   CLEAR     54  39  56 SE7       30.17F
OSAGE BEACH    CLEAR     55  37  50 SE5       30.22F

$$
MOZ051-052-059>065-190900-
...EAST CENTRAL MISSOURI...

CITY           SKY/WX    TMP DP  RH WIND       PRES   REMARKS
ST LOUIS INTL  PTCLDY    53  41  63 CALM      30.25S
SPIRIT OF STL  CLEAR     42  39  89 CALM      30.24S
ST CHARLES     CLEAR     49  45  86 CALM      30.24S

$$
MOZ072>076-082>087-097>100-106>115-190900-
...SOUTH CENTRAL AND SOUTHEAST MISSOURI...

CITY           SKY/WX    TMP DP  RH WIND       PRES   REMARKS
CAPE GIRARDEAU CLEAR     48  44  86 CALM      30.21F
FARMINGTON     CLEAR     45  39  81 CALM      30.26S
POPLAR BLUFF   CLEAR     51  44  77 CALM      30.20F
WEST PLAINS    CLEAR     45  39  79 CALM      30.23S

$$



USA.gov is the U.S. government's official web portal to all federal, state and local government web resources and services.